Flag for Germany Weather past 2 weeks in Viersen, North Rhine-Westphalia, Germany

Now
84 °F

Thundershowers. Clear.


Feels Like: 90 °F
Forecast: 58 / 76 °F
Wind: 2 mph from North

Location: Monchengladbach Airport

Current Time: Jul 5, 2015 at 4:03:31 PM

Latest Report: Jul 5, 2015 at 3:20 PM


Visibility: N/A

Pressure: 29.89 "Hg

Humidity: 66%

Dew point: 72 °F

Location of ViersenLocation

Historic Weather in Viersen — Graph

°F

Viersen temperature yesterday

Maximum temperature yesterday: 95 °F (at 2:50 PM)
Minimum temperature yesterday: 79 °F (at 7:50 AM)
Average temperature yesterday: 90 °F

Past Weeks' High & Low Weather Summary

 TemperatureHumidityPressure
High99 °F (Jul 2, 3:50 PM)100% (Jun 21, 7:50 AM)30.24 "Hg (Jun 21, 7:50 AM)
Low50 °F (Jun 22, 8:20 PM)29% (Jun 30, 5:50 PM)29.71 "Hg (Jun 22, 6:20 PM)
Average73 °F60%30.06 "Hg
* Reported Jun 20 2:20 PM — Jul 5 2:50 PM, Viersen, Weather by CustomWeather, © 2015

Note: Actual official high and low records may vary slightly from our data, if they occured in-between our weather recording intervals... More about our weather records

Advertising

Viersen weather history for previous 24 hours

 ConditionsComfort  
Time TempWeatherWind HumidityBarometerVisibility
2:50 PM
Sun, Jul 5
86 °FClear.5 mph62%29.92 "Hg10 mi
2:20 PM84 °FClear.8 mph62%29.92 "Hg10 mi
1:50 PM84 °FSunny.7 mph62%29.95 "Hg10 mi
1:20 PM82 °FClear.3 mph70%29.95 "Hg6 mi
12:50 PM79 °FClear.3 mph74%29.98 "Hg5 mi
12:20 PM77 °FClear.3 mph79%29.98 "Hg5 mi
11:50 AM75 °FClear.1 mph83%29.98 "Hg4 mi
11:20 AM73 °FClear.2 mph83%30.01 "Hg4 mi
10:50 AM73 °FScattered clouds.2 mph83%30.01 "Hg4 mi
10:20 AM73 °FSunny.3 mph89%30.04 "Hg10 mi
9:50 AM70 °FThundershowers. Scattered clouds.2 mph94%30.04 "HgN/A
9:20 AM72 °FPassing clouds.6 mph88%30.04 "HgN/A
8:50 AM72 °FScattered clouds.20 mph88%30.01 "HgN/A
8:20 AM68 °FThunderstorms. Broken clouds.8 mph83%30.09 "HgN/A
7:50 AM68 °FPassing clouds.6 mph78%30.04 "HgN/A
8:20 PM
Sat, Jul 4
90 °FClear.13 mph49%30.07 "Hg10 mi
7:50 PM91 °FPassing clouds.5 mph41%30.07 "HgN/A
7:20 PM93 °FPassing clouds.6 mph36%30.07 "HgN/A
6:50 PM93 °FPassing clouds.8 mph36%30.07 "HgN/A
6:20 PM95 °FPassing clouds.8 mph34%30.07 "HgN/A
5:50 PM95 °FPassing clouds.7 mph32%30.07 "HgN/A
5:20 PM95 °FPassing clouds.5 mph34%30.07 "HgN/A
4:50 PM93 °FPassing clouds.10 mph36%30.07 "HgN/A
4:20 PM95 °FPassing clouds.8 mph32%30.07 "HgN/A
Weather by CustomWeather, © 2015

See weather overviewHow to use our weather pages